411  
ASUS43 KDTX 170010  
RWRMI  
MICHIGAN HOURLY REGIONAL WEATHER ROUNDUP  
NATIONAL WEATHER SERVICE DETROIT/PONTIAC MI  
800 PM EDT WED APR 16 2014  
 
NOTE: "FAIR" INDICATES FEW OR NO CLOUDS BELOW 12,000 FEET WITH NO  
SIGNIFICANT WEATHER AND/OR TO VISIBILITY
.  
 
MIZ047>049-052>055-059>063-066>070-074>076-081>083-170100-  
SOUTHEAST LOWER MICHIGAN  
 
CITY SKY/WX TMP DP RH WIND PRES REMARKS
 
ADRIAN PTCLDY 38 26 62 SE13 30.35R  
6HR MIN TEMP: 38; 6HR MAX TEMP: 44;  
 
ALMA PTCLDY 42 19 40 SE9G17 30.31F  
ANN ARBOR CLEAR 37 23 56 E9 30.36S  
BAD AXE MOCLDY 35 23 62 SE9 30.41R  
6HR MIN TEMP: 35; 6HR MAX TEMP: 40;  
 
DETROIT CITY CLEAR 38 19 46 SE12 30.40F  
6HR MIN TEMP: 38; 6HR MAX TEMP: 42;  
 
DETROIT MOCLDY 38 21 50 E7 30.38F  
6HR MIN TEMP: 38; 6HR MAX TEMP: 41;  
 
FLINT PTCLDY 39 20 46 SE12 30.38R  
6HR MIN TEMP: 39; 6HR MAX TEMP: 45;  
 
GROSSE ILE CLEAR 37 19 48 E8 30.37F  
HILLSDALE CLEAR 41 23 47 SE9G16 30.30S  
HOWELL PTCLDY 37 19 47 SE10 30.35R  
6HR MIN TEMP: 37; 6HR MAX TEMP: 43;  
 
 
CITY SKY/WX TMP DP RH WIND PRES REMARKS
 
JACKSON PTCLDY 40 24 53 SE14G22 30.32R  
6HR MIN TEMP: 40; 6HR MAX TEMP: 44;  
 
LAMBERTVILLE PTCLDY 37 28 70 E8 30.36S  
LANSING PTCLDY 41 22 46 SE13 30.32R  
6HR MIN TEMP: 41; 6HR MAX TEMP: 46;  
 
LAPEER NOT AVBL  
MASON PTCLDY 40 25 56 SE12 30.32R  
MONROE CLEAR 36 23 60 E9 30.36F  
MT. CLEMENS MOCLDY 35 18 49 SE10 30.39F  
6HR MIN TEMP: 35; 6HR MAX TEMP: 40;  
 
PONTIAC MOCLDY 37 9 31 SE8 30.36S  
6HR MIN TEMP: 37; 6HR MAX TEMP: 41;  
 
PORT HOPE N/A 35 22 58 SE15 30.41R  
6HR MIN TEMP: 33; 6HR MAX TEMP: 36;  
 
PORT HURON PTCLDY 36 14 41 SE6 30.43S  
TRI CITIES PTCLDY 42 22 44 SE9 30.35F  
6HR MIN TEMP: 39; 6HR MAX TEMP: 45;  
 
YPSILANTI CLEAR 40 21 46 E10 30.37F  
6HR MIN TEMP: 40; 6HR MAX TEMP: 45;  
 

 
MIZ043>046-050>051-056>058-064>065-071>073-077>080-170100-  
SOUTHWEST LOWER MICHIGAN  
 
CITY SKY/WX TMP DP RH WIND PRES REMARKS
 
BATTLE CREEK PTCLDY 43 20 39 SE12 30.28S  
6HR MIN TEMP: 42; 6HR MAX TEMP: 46;  
 
BENTON HARBOR CLEAR 46 21 37 SE18G25 30.21S  
6HR MIN TEMP: 45; 6HR MAX TEMP: 50;  
 
BIG RAPIDS PTCLDY 42 21 43 SE10G20 30.26S  
6HR MIN TEMP: 39; 6HR MAX TEMP: 44;  
 
COLDWATER CLEAR 41 23 47 SE14G21 30.28F  
6HR MIN TEMP: 41; 6HR MAX TEMP: 45;  
 
HOLLAND CLEAR 46 21 37 SE17 30.24S  
6HR MIN TEMP: 45; 6HR MAX TEMP: 50;  
 
GRAND RAPIDS CLOUDY 45 21 38 SE16 30.26F  
6HR MIN TEMP: 44; 6HR MAX TEMP: 49;  
 
KALAMAZOO PTCLDY 45 20 36 SE9G18 30.26F  
6HR MIN TEMP: 43; 6HR MAX TEMP: 48;  
 
MARSHALL CLEAR 41 21 45 SE12 30.28F  
MUSKEGON MOCLDY 46 19 34 SE15 30.23S  
6HR MIN TEMP: 43; 6HR MAX TEMP: 49;  
 

 
MIZ016>042-170100-  
NORTHERN LOWER MICHIGAN  
 
CITY SKY/WX TMP DP RH WIND PRES REMARKS
 
ALPENA MOCLDY 32 21 64 SE14 30.39S  
6HR MIN TEMP: 32; 6HR MAX TEMP: 38;  
 
BEAVER ISLAND LGT SNOW 30 28 92 E9 30.35S  
6HR MIN TEMP: 29; 6HR MAX TEMP: 38;  
 
BELLAIRE CLOUDY 35 30 81 SE3 30.33S  
6HR MIN TEMP: 35; 6HR MAX TEMP: 43;  
 
CADILLAC MOCLDY 38 22 53 E12 30.25F  
CHARLEVOIX LGT SNOW 33 32 96 E6 30.37S VSB 1  
6HR MIN TEMP: 33; 6HR MAX TEMP: 40;  
 
FRANKFORT CLOUDY 36 29 76 E5 30.26F  
GAYLORD CLOUDY 34 24 67 S10 30.31F  
6HR MIN TEMP: 34; 6HR MAX TEMP: 39;  
 
GRAYLING CLOUDY 35 22 58 SE12 30.32F  
6HR MIN TEMP: 35; 6HR MAX TEMP: 40;  
 
HARBOR SPRINGS LGT SNOW 32 30 90 E5 30.34F  
HOUGHTON LAKE CLOUDY 36 20 52 E12 30.31F  
6HR MIN TEMP: 36; 6HR MAX TEMP: 42;  
 
MANISTEE MOCLDY 43 19 39 SE7 30.25S  
OSCODA CLOUDY 35 21 57 SE10G16 30.41S  
PELLSTON FLURRIES 34 22 61 NE6 30.35F  
6HR MIN TEMP: 34; 6HR MAX TEMP: 41; 6HR PCP: TRACE;  
 
TRAVERSE CITY CLOUDY 36 28 73 E9 30.29F  
6HR MIN TEMP: 36; 6HR MAX TEMP: 43; 6HR PCP: TRACE;  
 

 
MIZ007>008-015-170100-  
EASTERN UPPER MICHIGAN  
 
CITY SKY/WX TMP DP RH WIND PRES REMARKS
 
KINROSS CLOUDY 30 23 74 SE12 30.38R  
6HR MIN TEMP: 30; 6HR MAX TEMP: 36;  
 
MACKINAC ISLAN CLOUDY 31 26 82 E7G18 30.36S  
6HR MIN TEMP: 30; 6HR MAX TEMP: 32;  
 
NEWBERRY LGT SNOW 27 26 93 SE8 30.34F VSB 1  
6HR MIN TEMP: 27; 6HR MAX TEMP: 32;  
 
S. S. MARIE CLOUDY 32 21 64 SE12 30.37R  
6HR MIN TEMP: 32; 6HR MAX TEMP: 35;  
 

 
MIZ004>006-011>014-085-170100-  
CENTRAL UPPER MICHIGAN  
 
CITY SKY/WX TMP DP RH WIND PRES REMARKS
 
MANISTIQUE LGT SNOW 29 28 96 E10 30.31F  
ESCANABA CLOUDY 30 27 86 E17 30.26R  
6HR MIN TEMP: 30; 6HR MAX TEMP: 34;  
 
MENOMINEE CLOUDY 34 28 80 SE14G23 30.22S  
6HR MIN TEMP: 30; 6HR MAX TEMP: 36;  
 
SAWYER-GWINN LGT SNOW 28 27 93 SE9 30.23S VSB 3/4  

 
MIZ001>003-009>011-084-170100-  
WESTERN UPPER MICHIGAN  
 
CITY SKY/WX TMP DP RH WIND PRES REMARKS
 
IRON MOUNTAIN CLOUDY 30 26 85 SE16G24 30.16F  
6HR MIN TEMP: 28; 6HR MAX TEMP: 31; 6HR PCP: 0.01;  
 
HOUGHTON SNOW 27 24 89 E14 30.24S VSB 1/2  
6HR MIN TEMP: 27; 6HR MAX TEMP: 30; 6HR PCP: TRACE;  
 
COPPER HARBOR N/A 29 26 89 SE3 30.31R  
6HR MIN TEMP: 29; 6HR MAX TEMP: 33; 6HR PCP: 0.09;  
 
IRONWOOD CLOUDY 28 25 86 E9 30.10R VSB 1  
6HR MIN TEMP: 27; 6HR MAX TEMP: 28;  
 

 
 
ABBREVIATIONS USED IN REMARKS  
TC - TEMPERATURE IN CELSIUS  
WCI - WIND CHILL INDEX  
HX - HEAT INDEX  
VSB - VISIBILITY  
 
CLICK HERE TO GO TO PREVIOUS BULLETINS.

The Nexlab MI Page Main Text Page